Content
SEND FEEDBACK

Daily
Averages
Monthly
Summary
United States of America

ROCKFORD, ALABAMA


Home > North America > United States > Alabama
Elevation: 784 feet     Latitude: 32 53N     Longitude: 086 10W

WEATHER
 
SELECT A DAY
Number of Records: 272,612;   Date Range: 5/6/03 - 7/23/14
 
SHARE

PRINT THIS DATA

[ ← Previous Day ]
WEATHER ALMANAC - JANUARY 31, 2013
[ Next Day → ]
[ °C ]   °F
Weather ElementAverageHighLow
Temperature43.9 °F54.7 °F (1:15 pm)35.8 °F (9:15 pm)
Dewpoint27.4 °F33.1 °F (1:55 am)19.8 °F (12:55 pm)
Humidity56.1 %85 % (9:15 pm)26 % (2:35 pm)
Barometer30.15 in30.23 in (11:15 pm)30.01 in (12:35 am)
Wind Speed7.1 mph13.8 mph (9:35 am)
Wind Gust23 mph (10:55 am)
Weather ElementAverage
Visibility10 mi
Wind DirectionWSW (240.4 °)

Weather ElementTotal
Precipitation---
Heating Degree Days19.8 (Base 65)
Averaged from 68 records on January 31, 2013
WEATHER CONDITIONS BREAKOUT
WIND DIRECTION BREAKOUT
WEATHER BY HOUR - JANUARY 31, 2013
[ °C ]   °F
Local TimeTemperatureDewpointHumidityBarometerVisibilityWind DirectionWind SpeedGust SpeedPrecipitationEventsConditions
12:35 AM42.8 °F31.3 °F64 %30.01 in10.0 miWest (260°)12.7 mph18.4 mphOvercast
12:55 AM42.8 °F31.3 °F64 %30.01 in10.0 miWest (270°)10.4 mph16.1 mphOvercast
1:15 AM42.8 °F31.3 °F64 %30.03 in10.0 miWest (270°)10.4 mph16.1 mphOvercast
1:35 AM42.1 °F32.0 °F67 %30.03 in10.0 miWNW (300°)9.2 mph16.1 mphRainLight Rain
1:55 AM42.1 °F33.1 °F70 %30.04 in10.0 miWNW (290°)5.8 mphOvercast
2:15 AM42.1 °F32.0 °F67 %30.04 in10.0 miWest (280°)9.2 mphOvercast
2:35 AM42.1 °F31.8 °F67 %30.04 in10.0 miWest (280°)5.8 mphMostly Cloudy
2:55 AM41.0 °F30.2 °F65 %30.04 in10.0 miWest (270°)8.1 mphMostly Cloudy
3:15 AM41.0 °F30.9 °F67 %30.06 in10.0 miWest (270°)8.1 mphScattered Clouds
3:35 AM39.6 °F30.2 °F69 %30.06 in10.0 miWest (280°)9.2 mphScattered Clouds
3:55 AM39.6 °F30.4 °F70 %30.07 in10.0 miWest (270°)8.1 mphClear
4:15 AM39.6 °F30.6 °F70 %30.07 in10.0 miWest (270°)8.1 mphClear
4:35 AM39.6 °F30.6 °F70 %30.08 in10.0 miWest (280°)5.8 mphClear
4:55 AM37.4 °F28.4 °F70 %30.08 in10.0 miWest (270°)3.5 mphClear
5:15 AM37.0 °F29.1 °F73 %30.09 in10.0 miSW (230°)3.5 mphClear
5:35 AM37.0 °F29.7 °F75 %30.09 in10.0 miWest (270°)4.6 mphClear
5:55 AM37.0 °F29.7 °F75 %30.09 in10.0 miWest (280°)5.8 mphClear
6:15 AM37.0 °F29.3 °F74 %30.10 in10.0 miWest (270°)5.8 mphClear
6:35 AM37.0 °F28.9 °F73 %30.10 in10.0 miWNW (300°)3.5 mphClear
6:55 AM37.0 °F28.9 °F73 %30.11 in10.0 miWest (280°)4.6 mphClear
7:15 AM37.0 °F28.4 °F71 %30.11 in10.0 miWest (270°)4.6 mphClear
7:35 AM37.0 °F28.0 °F70 %30.13 in10.0 miWSW (250°)4.6 mphClear
7:55 AM39.6 °F29.5 °F67 %30.14 in10.0 miWNW (290°)6.9 mphClear
8:15 AM39.6 °F28.4 °F64 %30.14 in10.0 miWNW (300°)10.4 mph17.3 mphClear
8:35 AM39.7 °F27.7 °F62 %30.15 in10.0 miWest (280°)11.5 mph20.7 mphClear
8:55 AM41.0 °F28.0 °F60 %30.16 in10.0 miWNW (290°)10.4 mph17.3 mphClear
9:15 AM42.1 °F27.5 °F56 %30.17 in10.0 miWNW (300°)11.5 mph17.3 mphClear
9:35 AM42.8 °F26.1 °F52 %30.18 in10.0 miWNW (290°)13.8 mph18.4 mphClear
9:55 AM43.3 °F25.5 °F49 %30.19 in10.0 miNW (310°)10.4 mph20.7 mphClear
10:15 AM46.0 °F28.0 °F50 %30.19 in10.0 miWNW (300°)11.5 mph19.6 mphClear
10:35 AM46.6 °F25.9 °F44 %30.20 in10.0 miWNW (300°)12.7 mph20.7 mphClear
10:55 AM49.6 °F26.1 °F40 %30.20 in10.0 miNNW (330°)13.8 mph23.0 mphClear
11:15 AM49.6 °F24.3 °F37 %30.20 in10.0 miWest (280°)11.5 mph18.4 mphClear
11:35 AM49.6 °F21.6 °F33 %30.19 in10.0 miNW (320°)10.4 mph19.6 mphClear
11:55 AM49.6 °F20.7 °F32 %30.19 in10.0 miWest (280°)13.8 mph20.7 mphClear
12:15 PM51.3 °F20.5 °F30 %30.18 in10.0 miNW (310°)10.4 mphClear
12:35 PM52.0 °F20.3 °F29 %30.18 in10.0 miWNW (290°)13.8 mph21.9 mphClear
12:55 PM52.2 °F19.8 °F28 %30.17 in10.0 miWNW (300°)12.7 mph19.6 mphClear
1:15 PM54.7 °F22.1 °F28 %30.17 in10.0 miNNW (340°)13.8 mphClear
1:35 PM54.7 °F21.6 °F28 %30.17 in10.0 miWNW (300°)11.5 mphClear
1:55 PM54.7 °F21.7 °F28 %30.17 in10.0 miNW (320°)8.1 mph13.8 mphClear
2:15 PM54.7 °F21.2 °F27 %30.16 in10.0 miWNW (300°)8.1 mphClear
2:35 PM54.7 °F20.3 °F26 %30.16 in10.0 miWest (270°)11.5 mph16.1 mphClear
2:55 PM54.7 °F21.0 °F27 %30.16 in10.0 miNW (320°)11.5 mphClear
3:15 PM54.7 °F20.5 °F26 %30.16 in10.0 miWest (270°)11.5 mphClear
3:35 PM54.7 °F20.7 °F27 %30.16 in10.0 miWNW (300°)6.9 mphClear
3:55 PM54.7 °F21.2 °F27 %30.16 in10.0 miWest (280°)6.9 mphClear
4:15 PM54.7 °F21.9 °F28 %30.16 in10.0 miWNW (300°)6.9 mphClear
4:35 PM54.7 °F22.1 °F28 %30.17 in10.0 miWest (270°)4.6 mphClear
4:55 PM52.2 °F21.9 °F31 %30.16 in10.0 miWest (270°)4.6 mphClear
5:15 PM49.6 °F23.5 °F36 %30.17 in10.0 miCalmClear
5:35 PM47.8 °F30.2 °F50 %30.17 in10.0 miCalmClear
5:55 PM44.2 °F29.8 °F57 %30.18 in10.0 miCalmClear
6:15 PM42.1 °F30.7 °F64 %30.19 in10.0 miCalmClear
6:35 PM41.5 °F31.5 °F67 %30.19 in10.0 miCalmClear
6:55 PM40.8 °F31.5 °F69 %30.19 in10.0 miSSW (210°)3.5 mphClear
7:15 PM39.6 °F33.1 °F78 %30.19 in10.0 miSSW (200°)3.5 mphClear
7:35 PM37.0 °F32.0 °F82 %30.19 in10.0 miSSW (210°)4.6 mphClear
8:15 PM41.0 °F30.0 °F65 %30.20 in10.0 miCalmClear
8:35 PM39.6 °F31.8 °F74 %30.20 in10.0 miSSW (200°)3.5 mphClear
9:15 PM35.8 °F31.6 °F85 %30.20 in10.0 miSSW (200°)4.6 mphClear
9:35 PM37.0 °F30.6 °F77 %30.20 in10.0 miSSW (210°)6.9 mphClear
10:15 PM40.1 °F28.4 °F63 %30.22 in10.0 miCalmClear
10:35 PM39.6 °F29.1 °F66 %30.22 in10.0 miSSW (210°)3.5 mphClear
10:55 PM37.0 °F29.7 °F75 %30.22 in10.0 miSSW (200°)3.5 mphClear
11:15 PM39.6 °F29.5 °F67 %30.23 in10.0 miSouth (190°)3.5 mphClear
11:35 PM37.0 °F30.9 °F79 %30.22 in10.0 miSSW (200°)3.5 mphClear
11:55 PM39.6 °F29.8 °F68 %30.22 in10.0 miCalmClear
Hourly data recorded from KALX, located miles away from Rockford, Alabama







STORIES FROM OUR PARTNERS